Regional Weather Roundup
Issued by NWS Grand Forks, ND

Home | Current Version | Previous Version | Graphics & Text | Print | Product List | Glossary On
Versions: 1 2 3 4 5 6 7 8 9 10 11 12 13 14 15 16 17 18 19 20 21 22 23 24 25 26 27 28 29 30 31 32 33 34 35 36 37 38 39 40 41 42 43 44 45 46 47 48 49 50
000
ASUS43 KFGF 241510
RWRFGF
PRAIRIE TO PINES  WEATHER ROUNDUP
NATIONAL WEATHER SERVICE EASTERN NORTH DAKOTA/GRAND FORKS ND
1000 AM CDT WED AUG 24 2016

 **SATELLITE DATA USED TO AUGMENT SKY COVER AT AUTOMATED STATIONS**
 *****  WEATHER ACROSS EASTERN NORTH DAKOTA  *****

CITY           SKY/WX    TMP DP  RH WIND       PRES   REMARKS
GRAND FORKS    SUNNY     68  55  63 W16       29.84R
GRAND FRKS AFB SUNNY     67  54  62 W20       29.85R
GRAND FRKS NWS   N/A     66 N/A N/A NW9         N/A
DEVILS LAKE    MOSUNNY   62  52  69 W21       29.89S
FARGO          SUNNY     68  53  58 W18       29.88S
WAHPETON ARPT  SUNNY     64  52  63 W14G20    29.93R
$$

 ***** WEATHER ACROSS CENTRAL AND WESTERN NORTH DAKOTA  *****

CITY           SKY/WX    TMP DP  RH WIND       PRES   REMARKS
BISMARCK       SUNNY     65  51  60 W15G25    30.01S
MINOT          MOSUNNY   64  50  60 W22G33    29.92R
JAMESTOWN      SUNNY     63  53  70 W18       29.94S
MINOT AFB      MOSUNNY   63  50  62 W24G31    29.90R
GARRISON         N/A     62  51  67 W20G30    29.95S
WILLISTON      PTSUNNY   60  46  59 W24       30.00R
DICKINSON      MOSUNNY   61  47  59 W23G32    30.03F
HETTINGER      SUNNY     62  48  60 W26G33    30.10R
$$

 *****  OTHER AIRPORT OBSERVATIONS IN OUR AREA  *****

CITY           SKY/WX    TMP DP  RH WIND       PRES   REMARKS
WALHALLA       NOT AVBL
GRAFTON AIRPOR FAIR      66  54  63 W20G26    29.84S
VALLEY CITY AR FAIR      64  55  72 W18       29.95R
CANDO          NOT AVBL
CAVALIER APRT  FAIR      64  52  63 W16G26    29.82R
GWINNER        FAIR      66  54  63 W17G25    29.95S
SHEYENNE NWR     N/A     67  52  58 NW14      29.95
ROLLA          PTSUNNY   59  50  72 W21G29    29.87S
 ***** THE ABOVE OBSERVATIONS ARE NON NWS ARE NOT QUALITY
       CONTROLLED AND MAY MIS-REPORT RAIN FOR SNOW...
$$

  *****  WEATHER ACROSS NORTHERN MINNESOTA  *****

CITY           SKY/WX    TMP DP  RH WIND       PRES   REMARKS
FLAG ISLAND    SUNNY     68  61  77 W7        29.74S HAZE
WARROAD        SUNNY     68  61  77 W8        29.78S
ROSEAU         SUNNY     68  57  68 SW9       29.78F
HALLOCK        SUNNY     66  54  63 W13G20    29.80S
THF RVR FALLS  SUNNY     66  54  65 W14       29.84S
BAUDETTE       SUNNY     70  61  73 W10       29.78S
WASKISH        SUNNY     70  61  73 W14       29.81S
CROOKSTON      SUNNY     66  55  68 NW18      29.85S
GREENBUSH NDAW   N/A     66  55  68 W10         N/A
$$
  *****  WEATHER ACROSS CENTRAL AND WEST MINNESOTA  *****

CITY           SKY/WX    TMP DP  RH WIND       PRES   REMARKS
FOSSTON        SUNNY     64  54  68 W10       29.87R
BEMIDJI        SUNNY     70  54  57 W12       29.85R
PARK RAPIDS    SUNNY     71  53  52 W13       29.87R
ELBOW LAKE     FAIR      65  56  71 NW9       29.93R
WADENA         NOT AVBL
DETROIT LAKES  SUNNY     66  52  59 NW12      29.90S
MOORHEAD       SUNNY     68  54  60 W13       29.90S
FERGUS FALLS   SUNNY     64  54  68 NW14G20   29.93R
MORRIS MN      SUNNY     70  55  60 NW9       29.93R
STAPLES        SUNNY     72  55  56 W13       29.89R
$$
  *****  WEATHER ELSEWHERE ACROSS MINNESOTA  *****

CITY           SKY/WX    TMP DP  RH WIND       PRES   REMARKS
DULUTH         MOSUNNY   71  65  81 W5        29.83R
INTRNTL FALLS  PTSUNNY   72  65  78 W9        29.76S
ELY            MOSUNNY   72  64  78 SW7       29.80S
CLOQUET        CLOUDY    70  64  83 W6        29.84R
WHEATON        SUNNY     70  55  60 W14       29.95R
BRAINERD       SUNNY     72  58  61 W10       29.87R
HIBBING        CLOUDY    67  65  93 SW6       29.82R
ALEXANDRIA     SUNNY     69  55  60 NW10      29.94R
SAINT CLOUD    MOSUNNY   75  64  68 W7        29.88R
MINNEAPOLIS    CLOUDY    71  66  84 W8        29.88R
$$

  *****  WEATHER ACROSS SOUTH DAKOTA  *****

CITY           SKY/WX    TMP DP  RH WIND       PRES   REMARKS
SIOUX FALLS    CLOUDY    69  58  67 NW7       29.99R
BROOKINGS      SUNNY     67  55  65 N8        29.99R
WATERTOWN      SUNNY     70  53  54 NW12      29.98S
HURON          CLOUDY    66  51  58 N14       30.01R
SISSETON         N/A     70  52  52 NW15G22   29.94R
ABERDEEN       SUNNY     67  51  56 NW16G25   29.99S
MITCHELL       MOSUNNY   66  52  60 NW6       30.03R
PIERRE         PTSUNNY   66  49  54 NW20      30.08S
MOBRIDGE       SUNNY     66  48  52 W16       30.05R
RAPID CITY     PTSUNNY   63  46  54 N17G24    30.19S
$$

  *****  SOME WEATHER IN NEARBY STATES *****

CITY           SKY/WX    TMP DP  RH WIND       PRES   REMARKS
GLASGOW MT     CLOUDY    55  44  66 W31G37    30.12R
GREAT FALLS MT CLOUDY    53  43  68 NW13      30.33S
CHEYENNE WY    CLOUDY    58  44  60 NE6       30.27R
SCOTTSBLUFF NE CLOUDY    61  42  49 E6        30.22R
OMAHA NE       CLOUDY    74  65  73 N12       29.97R
DES MOINES IA  PTSUNNY   76  66  71 W9        29.94R
DAVENPORT IA   CLOUDY    76  73  91 SE7       29.91F
CHICAGO IL     CLOUDY    73  71  93 S8        29.97F FOG
EAU CLAIRE WI  CLOUDY    71  68  90 W7        29.86R
LA CROSSE WI   CLOUDY    72 N/A N/A S10       29.87R
$$

  *****  SOME NATIONAL WEATHER *****

CITY           SKY/WX    TMP DP  RH WIND       PRES   REMARKS
LA GUARDIA NY  MOSUNNY   82  60  47 NW5       30.26F
RALEIGH NC     PTSUNNY   81  58  45 S6        30.32S
ATLANTA GA     CLOUDY    80  74  81 S8        30.28F
NEW ORLEANS LA PTSUNNY   91  78  65 N7        30.16S HX 106
OKLAHOMA CITY  MOSUNNY   84  69  60 SW20G28   30.06R
ALBUQUERQUE NM CLOUDY    63  51  65 N5        30.25S
SALT LAKE CITY SUNNY     70  29  21 S3        30.15R
LOS ANGELES CA MOSUNNY   68  59  73 SW3       30.04R
BOISE ID       SUNNY     58  40  51 CALM      30.17R
SEATTLE WA     MOSUNNY   64  56  75 N6        30.24R
$$

*** WEATHER ACROSS MANITOBA...SASKATCHEWAN AND ONTARIO ***
                ***ONTARIO***

CITY           SKY/WX    TMP DP  RH WIND       PRES   REMARKS
GERALDTON      PTSUNNY   70  64  83 S12G22    29.81R
THUNDER BAY    PTSUNNY   75  66  73 SW3       29.77F
SIOUX LOOKOUT  CLOUDY    72  68  88 SW6       29.70R
TORONTO        PTSUNNY   77  63  61 S8        30.16S
BIG TROUT LK   LGT RAIN  54  50  87 NE5       29.87F
PICKLE LAKE    CLOUDY    61  59  94 NE5       29.74R
DRYDEN         PTSUNNY   72  63  73 W17G25    29.72R
KENORA         LGT RAIN  66  61  82 W9        29.75R
$$
                *** MANITOBA***

CITY           SKY/WX    TMP DP  RH WIND       PRES   REMARKS
BRANDON        CLOUDY    59  54  82 W17G24    29.80S
DAUPHIN        CLOUDY    59  55  88 W8        29.76R
ISLAND LAKE    PTSUNNY   59  52  77 NE10G20   29.87R
PILOT MOUND      N/A     61  52  72 W12G20      N/A
THE PAS        PTSUNNY   59  52  77 N13G20    29.95R
THOMPSON       PTSUNNY   55  50  82 NE9       30.00S
WINNIPEG       SUNNY     64  55  72 W21       29.75R
LYNN LAKE      SUNNY     61  46  59 MISG      30.07S
CHURCHILL      MOSUNNY   52  45  76 N12       29.99S
GILLAM         PTSUNNY   54  50  87 NE6       30.00S
$$
                ***SASKATCHEWAN***

CITY           SKY/WX    TMP DP  RH WIND       PRES   REMARKS
ESTEVAN        DRIZZLE   54  52  94 W17G24    29.91R FOG
KINDERSLEY     CLOUDY    54  48  82 NW13      30.18R
LLOYDMINSTER   PTSUNNY   52  48  87 NW7       30.22R
PRINCE ALBERT  CLOUDY    55  52  88 N9        30.07R
REGINA         LGT RAIN  55  52  88 NW22G32   29.93R
YORKTON        LGT RAIN  55  54  94 NW14      29.81R
N. BATTLEFORD  CLOUDY    54  52  94 NW12      30.17R
LA RONGE       MOSUNNY   61  52  72 N6        30.11R
SASKATOON      CLOUDY    54  52  94 N13G21    30.09R
SWIFT CURRENT  LGT RAIN  50  48  93 N18G26    30.10R
$$
NOTE: THESE ARE AUTOMATED STATIONS WITH LIMITED QUALITY CONTROL
      "FAIR" INDICATES FEW OR NO CLOUDS BELOW 12,000 FEET WITH NO
      SIGNIFICANT WEATHER AND/OR OBSTRUCTIONS TO VISIBILITY.
      SKY/WX - SKY CONDITION AND SIGNIFICANT WEATHER.
      TMP - AIR TEMPERATURE.    DP   - DEWPOINT TEMPERATURE.
      RH  - RELATIVE HUMIDITY.  PRES - PRESSURE.
      HX  - HEAT INDEX.         WCI  - WIND CHILL INDEX.
$



USA.gov is the U.S. government's official web portal to all federal, state and local government web resources and services.